Temp
26 26 26 27 27 27 27 27 27 27 27 27 27 26 26 26 26 26 25 25 25 25 25 25 25 25 25 25 25 25 25 25 26 25 25 25 25 26 26 26 26 26
26 26 26 27 27 27 27 27 27 27 27 27 27 27 27 27 26 26 26 25 25 25 25 25 25 25 25 25 25 25 25 25 25 25 25 25 25 26 26 26 26 26
25 26 26 26 27 27 27 27 27 27 27 27 27 27 27 27 26 26 26 26 25 25 25 25 25 25 25 25 25 25 25 25 25 25 25 25 25 26 26 26 26 26
25 25 26 26 26 27 27 27 27 27 27 27 27 27 27 27 27 26 26 26 26 25 25 25 25 25 25 26 26 25 25 25 25 25 25 25 25 25 26 26 26 26
25 25 25 26 26 26 27 27 27 27 27 27 27 27 27 27 27 26 26 26 26 26 25 25 25 25 25 25 26 25 25 25 25 25 25 25 25 25 25 26 26 26
25 25 25 25 26 26 26 26 27 27 27 28 27 27 27 27 27 27 26 26 26 26 26 25 25 25 25 25 25 25 26 25 25 25 25 25 25 25 25 25 26 26
24 25 25 25 25 25 26 26 26 27 27 27 27 27 27 27 27 27 27 26 26 26 26 26 26 25 25 25 25 25 25 26 26 25 25 25 25 25 25 25 25 26
25 25 25 25 25 25 25 25 26 26 26 27 27 27 27 27 27 27 27 26 26 26 26 26 26 26 25 25 25 25 25 25 25 26 26 26 25 25 25 25 25 25
25 25 24 24 24 25 25 25 25 26 26 26 26 27 27 27 27 27 27 26 26 26 26 26 26 26 25 25 25 25 25 25 25 25 26 26 26 25 25 25 25 25
25 25 24 24 24 25 25 25 25 25 25 26 26 26 26 26 27 27 26 26 26 26 26 26 25 25 25 25 25 25 25 25 25 25 25 26 26 26 26 25 25 25
25 25 24 24 24 25 25 25 25 25 25 25 25 26 26 26 26 26 26 26 26 26 26 25 26 25 25 25 25 25 25 25 25 25 25 25 26 26 26 25 25 26
25 25 25 25 25 25 25 25 25 25 25 25 25 25 26 26 26 26 26 26 26 26 26 26 26 25 25 25 25 25 25 24 25 25 25 25 26 26 26 26 25 26
25 25 25 25 25 25 25 25 25 25 25 25 25 25 25 25 25 25 25 26 26 26 26 26 26 25 25 25 25 25 24 24 24 25 25 25 26 26 26 26 26 26
25 25 25 25 25 25 25 25 25 25 25 25 25 25 25 25 26 26 26 26 26 26 26 26 26 26 25 25 25 25 25 24 24 24 25 25 25 26 26 26 26 26
25 25 25 25 25 25 25 25 25 25 25 25 25 25 25 26 26 26 26 26 26 26 26 26 26 26 26 25 25 25 25 24 24 24 24 25 25 25 26 26 26 26
25 25 25 25 25 25 25 25 25 25 25 25 25 25 25 26 26 26 26 26 26 26 25 25 26 26 26 26 26 25 25 25 24 24 24 25 25 25 25 26 26 26
25 25 25 25 25 25 25 25 25 25 25 25 25 25 25 26 26 26 26 26 26 26 25 25 25 26 26 26 26 26 25 25 25 25 25 25 25 25 25 26 26 26
26 25 25 25 25 25 25 25 25 25 25 25 25 25 25 26 26 26 26 26 26 26 25 25 25 26 26 26 26 26 26 25 25 25 25 25 25 25 25 25 25 26
26 26 25 25 25 25 25 25 25 25 25 25 25 25 25 26 26 26 26 26 26 26 26 26 26 26 26 26 26 26 26 25 25 25 25 25 25 25 25 25 25 25
26 26 25 25 25 25 25 25 25 25 25 25 26 26 26 26 26 26 26 26 26 26 26 26 26 26 26 26 26 26 26 26 25 25 25 25 25 25 25 25 25 25
26 26 26 25 25 25 25 25 25 25 25 25 26 26 26 26 26 26 26 26 26 26 26 26 26 26 26 26 26 26 26 26 26 25 25 25 25 25 25 25 25 25
26 26 26 26 25 25 25 25 25 25 25 25 26 26 26 26 26 26 26 26 26 26 26 26 26 26 26 26 26 26 26 26 26 25 25 25 25 25 25 25 25 25
27 26 26 26 26 25 25 25 25 25 25 25 26 26 26 26 26 26 26 26 26 26 26 26 26 26 27 27 27 26 26 26 26 25 25 25 25 25 25 25 25 25
27 27 26 26 26 26 25 25 25 25 25 25 26 26 26 26 26 26 26 26 26 26 26 26 26 27 27 27 27 27 26 26 26 25 25 25 25 25 25 25 25 26
27 27 27 26 26 26 26 26 26 26 26 26 26 26 26 26 26 26 26 26 26 27 27 27 27 27 27 27 27 27 27 26 26 25 25 25 25 25 25 25 25 25
28 27 27 27 26 26 26 26 26 26 26 26 26 26 26 26 26 26 26 26 26 27 27 27 27 27 27 27 27 27 27 27 26 25 25 25 25 25 24 24 25 25
Height
821 822 824 825 827 828 830 831 832 833 835 836 837 839 840 841 843 844 846 847 849 850 851 852 853 854 854 855 855 856 856 857 857 858 858 858 859 859 859 860 860 860
818 819 821 823 825 826 828 829 830 831 833 834 835 837 838 840 841 842 844 845 847 848 849 850 851 852 853 854 854 854 855 856 856 857 857 857 858 858 858 859 859 860
815 817 819 820 821 823 825 827 828 829 831 832 834 835 837 838 840 841 842 843 845 846 847 849 850 851 852 852 853 853 854 854 855 856 856 857 857 857 858 858 859 859
812 814 815 817 818 820 822 824 826 827 829 830 831 833 835 836 838 839 840 842 843 844 845 847 848 849 850 851 851 852 852 853 854 855 855 856 856 856 857 857 858 858
809 811 813 815 816 818 820 821 823 825 826 828 829 831 832 834 835 837 838 839 840 842 843 844 846 847 848 849 849 850 851 852 852 853 854 854 855 855 856 856 857 857
806 808 810 812 814 816 817 818 820 822 823 825 827 829 830 831 833 834 835 837 838 839 841 842 843 844 846 847 848 848 849 850 851 852 852 853 854 854 855 855 856 856
803 806 808 810 812 814 815 816 817 819 820 822 824 826 828 829 831 832 833 834 835 836 838 839 841 842 843 845 846 847 847 848 849 850 851 851 853 853 853 854 854 854
799 802 805 808 810 812 812 813 815 816 818 820 822 823 825 827 828 829 831 832 833 834 835 837 838 840 841 843 844 845 846 847 848 849 849 850 851 852 852 853 853 853
796 799 802 805 807 809 810 811 813 814 816 818 819 821 822 824 826 827 829 830 831 832 833 835 836 838 839 841 842 843 844 845 846 847 848 848 849 850 851 851 852 852
793 795 798 801 803 806 807 809 811 813 814 816 817 819 820 821 823 825 826 828 829 830 831 833 834 836 837 839 840 841 842 843 844 845 846 846 847 848 849 850 850 851
790 792 795 797 800 802 804 807 809 811 812 814 815 817 818 819 821 822 824 825 826 828 829 830 832 833 835 836 838 839 840 841 842 843 844 844 845 846 847 848 849 849
786 788 790 793 795 798 801 804 806 808 810 812 813 814 815 817 818 819 821 822 824 825 827 828 829 831 832 834 835 837 838 839 840 841 842 843 843 844 845 846 847 848
783 785 787 789 792 795 798 801 803 805 807 809 810 812 813 814 815 817 818 819 821 822 824 825 827 829 830 832 833 835 836 838 839 839 840 841 842 842 843 844 845 846
779 782 785 787 789 792 795 798 800 802 804 806 808 809 810 811 812 814 816 817 818 820 821 823 824 826 828 829 831 833 834 836 837 838 838 839 840 840 841 842 843 844
777 780 782 785 787 789 792 794 797 799 801 803 805 806 807 808 810 812 813 814 816 817 819 820 822 823 825 826 828 830 832 833 834 835 836 837 837 838 839 840 841 841
774 777 780 782 784 786 789 791 794 796 798 800 801 802 804 806 807 809 810 812 813 815 816 818 819 820 821 823 825 827 829 830 832 833 834 835 835 836 837 838 838 839
771 774 776 779 781 783 785 788 791 793 795 797 798 800 801 803 805 806 807 809 810 812 814 815 816 817 818 820 822 824 826 827 829 830 831 832 833 834 834 835 836 836
767 770 772 775 777 779 782 785 788 790 792 794 795 797 799 800 802 803 804 806 808 809 810 812 813 814 815 817 819 821 823 825 826 828 829 830 831 831 832 833 833 834
761 764 767 770 773 776 778 781 784 786 788 790 792 794 796 797 799 800 801 803 804 806 807 808 810 811 812 814 816 818 820 822 824 825 826 827 828 829 830 830 831 832
755 758 761 765 768 772 775 777 780 782 785 787 789 792 793 794 795 797 798 800 801 802 804 805 806 808 809 811 813 815 818 820 822 823 824 825 826 826 827 828 828 829
749 752 756 760 764 768 771 773 776 778 781 784 786 788 789 790 792 793 794 796 797 799 801 802 803 804 806 808 810 812 815 818 819 821 822 823 823 824 825 825 826 827
744 748 751 755 759 763 766 769 772 774 777 781 783 784 786 787 788 790 791 793 795 796 798 799 799 801 803 805 807 810 812 815 817 818 819 820 821 821 822 823 823 824
741 744 747 751 755 758 760 764 767 771 774 777 779 781 782 783 785 786 788 790 791 793 794 795 796 798 800 802 804 807 810 812 814 815 816 817 817 818 819 819 820 821
738 740 743 747 750 752 756 759 763 767 770 773 776 777 778 780 781 783 785 786 788 789 790 792 793 794 796 798 801 804 806 809 810 812 813 813 814 815 816 816 817 818
734 736 739 742 745 747 751 755 759 762 766 769 772 773 775 777 779 780 781 782 784 786 787 789 790 791 793 795 798 801 803 805 807 808 809 810 810 811 812 813 814 815
730 732 734 737 740 743 747 751 754 758 761 764 767 770 772 774 776 777 778 779 781 782 784 785 786 788 790 791 794 797 799 801 804 805 805 806 806 807 808 809 811 811
Wind_Speed
41 39 38 37 37 38 37 36 35 34 32 31 31 30 29 28 28 27 27 26 24 23 21 20 20 19 17 16 15 17 18 16 12 11 12 13 13 15 15 12 10 9
42 40 38 37 38 39 39 38 36 35 34 32 31 30 30 29 28 28 28 27 26 25 23 21 21 20 19 18 16 16 19 19 14 12 13 13 14 15 15 13 11 10
43 41 39 38 39 40 40 39 38 36 34 33 32 31 30 30 29 28 28 28 27 26 25 24 23 22 21 21 18 16 19 21 17 14 13 13 13 15 16 14 13 12
43 43 42 41 40 41 42 41 39 38 35 33 32 32 30 30 29 29 28 28 28 27 26 26 25 24 24 23 22 19 19 21 19 16 16 15 13 15 16 16 15 13
44 44 43 42 41 40 41 41 41 40 38 35 33 33 32 31 30 30 29 28 28 28 27 27 27 26 26 25 25 24 22 22 21 19 18 18 16 16 17 17 17 16
43 43 43 42 41 40 40 41 42 41 40 39 37 35 34 33 32 31 30 29 29 29 29 29 28 28 28 27 27 27 26 25 25 23 21 20 19 18 17 17 18 18
42 42 42 41 41 40 40 41 42 41 41 41 39 38 37 35 34 34 33 32 31 31 31 31 30 30 30 30 29 29 28 27 27 26 25 23 22 20 18 18 18 19
42 42 42 41 40 39 40 40 40 40 41 40 39 39 39 38 37 36 35 34 33 33 34 33 32 32 32 31 30 30 29 28 27 27 26 25 24 22 20 19 19 20
42 42 42 41 40 39 39 40 40 39 39 39 39 39 39 39 39 38 38 37 36 35 35 35 34 33 33 32 32 31 30 29 27 26 26 25 25 25 24 22 20 20
41 41 41 41 40 40 39 39 39 39 38 38 39 39 38 39 39 39 38 38 37 36 35 36 36 35 34 33 33 32 32 31 29 28 27 26 25 26 25 24 23 22
42 41 41 41 41 40 40 40 39 38 37 37 38 38 38 38 38 38 38 38 37 37 36 36 36 36 35 34 34 33 33 32 32 30 29 27 26 25 25 24 23 23
41 41 41 42 42 41 41 40 39 38 37 37 38 38 37 37 38 38 38 38 38 38 37 37 37 37 37 36 35 34 34 33 33 32 31 30 28 27 25 25 24 23
41 41 41 41 42 42 41 40 39 38 38 38 38 38 38 37 37 38 38 38 39 39 39 39 38 37 37 36 35 34 34 34 33 33 32 31 30 29 27 26 25 24
40 40 40 40 40 40 40 39 39 39 39 38 38 38 38 38 38 38 38 38 38 39 40 40 39 38 38 37 36 35 34 34 34 33 33 32 32 31 30 29 28 27
39 38 38 39 39 39 39 39 39 38 38 38 38 39 39 39 38 38 38 38 38 38 39 40 39 39 39 38 37 36 34 34 34 34 33 33 32 32 31 31 30 29
37 37 37 37 38 38 39 39 38 38 38 38 39 39 39 38 38 37 37 38 38 38 38 39 39 39 40 40 39 38 36 35 34 35 34 33 32 32 32 32 31 30
36 36 36 37 37 38 38 39 38 38 37 37 38 39 39 38 37 37 37 37 38 38 38 38 39 40 41 41 41 39 38 36 35 35 34 34 33 32 32 32 32 31
36 36 36 37 37 38 38 38 38 38 37 37 37 38 38 38 37 37 37 37 37 37 38 38 39 41 42 42 42 41 39 38 36 35 34 34 34 33 33 33 32 32
37 37 37 37 38 38 38 38 38 38 38 38 37 37 37 37 38 38 37 37 37 37 37 38 40 42 43 42 42 41 41 39 37 36 35 34 34 34 34 33 33 32
38 38 38 38 38 38 37 37 38 38 39 38 37 36 36 37 38 38 38 38 37 37 38 38 40 42 43 43 43 42 41 41 39 37 35 35 35 34 34 34 34 33
38 38 38 38 38 37 37 37 38 38 39 38 37 36 37 37 38 38 39 39 38 38 38 38 40 42 42 42 43 42 41 41 40 38 36 34 34 34 34 35 35 34
38 38 37 37 37 37 37 38 38 38 38 38 37 36 36 37 37 38 38 39 38 38 37 38 40 42 43 43 43 42 41 40 40 40 37 35 35 35 35 36 35 35
38 38 37 37 37 37 38 38 38 38 38 37 37 36 35 36 36 37 38 38 38 38 38 38 40 41 43 43 43 42 41 40 40 40 38 37 37 37 37 37 37 36
38 38 37 37 37 38 38 38 37 37 37 37 37 36 36 35 35 36 36 38 39 39 39 39 39 40 42 43 43 43 42 41 40 39 38 38 39 38 38 38 38 38
38 39 38 38 39 40 39 38 38 37 37 37 37 36 36 35 34 34 35 37 38 39 40 40 39 39 40 42 42 42 42 42 41 39 38 38 39 38 37 37 38 39
38 39 40 40 40 40 39 38 38 37 36 37 37 36 35 34 34 34 35 35 37 38 39 40 40 39 39 41 42 42 42 42 41 39 38 39 39 38 36 35 36 37
Wind_Direction
206 206 205 204 206 206 204 204 206 208 211 210 208 207 207 207 207 209 212 214 216 219 214 207 206 208 216 221 216 216 218 215 213 211 206 207 210 209 212 220 230 235
207 208 207 205 205 206 205 206 207 209 211 212 210 209 209 209 208 209 212 214 215 218 215 209 205 206 212 215 215 218 218 215 215 212 205 206 207 208 212 217 227 237
209 209 209 208 206 206 206 206 207 209 212 213 212 212 211 210 210 211 213 215 215 217 216 212 210 210 211 212 214 216 214 213 215 214 210 209 208 211 213 218 227 236
210 211 211 211 209 207 207 208 209 210 212 214 214 214 215 213 212 213 215 217 217 218 217 214 213 212 211 211 212 212 211 212 214 215 217 216 215 218 217 218 226 234
210 212 212 212 212 210 209 209 211 212 213 215 217 217 218 217 216 215 216 217 218 219 218 215 213 213 213 213 214 213 211 211 213 216 218 217 218 222 222 221 225 230
211 213 213 214 214 213 212 212 213 214 215 218 219 220 220 220 220 219 219 219 220 220 220 218 216 215 216 216 217 217 215 214 216 218 219 220 220 223 226 226 227 230
211 213 214 215 215 215 215 215 216 216 218 219 219 219 220 221 222 223 223 223 222 222 222 221 219 218 219 219 220 221 220 219 219 220 223 223 221 222 227 230 232 230
210 212 214 216 217 217 216 216 216 217 218 218 217 218 220 221 222 224 225 225 224 224 224 223 222 221 221 221 221 222 222 221 219 220 223 223 222 223 226 231 235 233
209 211 213 215 216 217 218 218 217 217 217 216 217 219 219 220 222 223 224 225 226 226 225 224 223 223 222 221 222 222 221 220 219 219 221 222 222 224 225 229 233 234
209 211 212 214 216 218 219 219 219 219 218 217 218 219 220 220 222 223 224 225 226 226 225 224 223 222 222 222 223 223 222 220 220 220 222 223 225 225 226 229 233 235
209 210 211 213 216 218 220 220 221 220 219 219 219 220 220 221 221 222 222 223 224 225 224 223 223 222 222 222 224 224 224 222 221 221 223 225 228 228 229 230 234 237
209 210 211 213 215 217 219 220 221 221 220 220 220 220 220 221 221 221 221 221 222 224 224 224 224 223 222 223 224 225 225 224 223 224 225 227 229 231 232 234 236 238
210 211 212 213 215 217 218 220 220 221 220 220 220 220 220 220 221 221 221 221 221 222 223 224 224 223 223 224 225 225 225 225 225 225 227 228 230 231 233 236 239 240
211 212 213 214 216 217 218 219 220 220 220 220 220 220 220 220 220 221 221 221 221 221 222 223 224 224 224 225 225 225 225 226 227 227 228 229 231 232 233 236 240 244
211 212 214 215 216 217 218 219 220 220 220 220 219 219 220 220 221 221 221 221 221 222 222 222 223 223 224 225 225 225 225 227 228 228 229 230 231 232 233 236 239 243
210 212 214 215 216 218 219 219 220 220 220 220 220 220 220 220 220 221 221 221 221 222 222 222 222 224 225 227 228 227 226 226 227 228 230 231 231 232 233 235 238 241
211 212 213 215 216 218 219 219 219 220 220 220 220 220 220 220 220 220 220 221 221 221 221 221 222 225 226 228 229 230 227 225 226 228 229 230 232 232 234 235 236 239
210 211 213 215 216 217 218 219 219 219 220 220 220 220 219 219 219 219 220 220 220 220 221 221 223 226 227 229 230 231 230 227 225 227 228 230 232 233 235 236 237 238
208 210 212 214 216 217 218 218 219 219 220 220 220 220 219 219 219 219 220 220 219 219 220 221 223 226 228 229 230 231 231 229 227 228 229 231 232 233 235 236 237 239
207 208 210 213 215 216 217 217 218 218 219 220 220 220 219 219 219 219 220 220 220 219 220 221 224 226 228 229 231 232 232 231 229 229 231 232 234 235 236 237 239 239
205 206 208 210 212 213 215 216 217 218 218 219 220 220 219 219 219 219 219 220 220 220 220 221 224 227 228 229 230 232 232 232 230 230 231 233 235 237 238 240 241 241
204 205 206 208 210 211 213 215 217 218 218 218 219 220 220 220 219 219 219 220 220 220 220 221 225 227 228 229 230 231 231 231 230 230 231 234 236 238 240 242 243 243
205 205 205 207 208 209 212 214 215 217 217 217 218 219 220 220 219 219 219 219 220 220 220 221 224 227 228 229 230 231 230 229 229 229 230 233 236 239 241 242 244 244
207 207 206 206 208 209 212 213 214 216 217 217 218 219 220 220 220 219 219 219 219 220 220 222 224 226 228 229 230 230 229 228 228 228 229 233 237 239 241 242 244 245
209 208 207 207 208 210 212 212 213 214 215 216 218 219 221 222 221 220 219 219 220 220 221 222 224 226 228 229 229 229 228 228 228 227 229 233 236 239 240 241 243 245
211 209 209 208 210 211 212 212 213 213 214 215 216 218 220 222 222 221 220 220 220 220 222 223 224 225 228 229 229 228 228 227 226 225 228 233 235 237 239 240 241 243